[[{"header":{"parameterUnit":"m.s-1","parameterCategory":1,"la1":30.2991,"la2":30.254,"lo1":-89.0895,"lo2":-89.0444,"dy":0.0017,"dx":0.0017,"nx":28,"ny":28,"refTime":"2024-03-13T21:00:00:Z","depth":0,"parameterNumber":2,"parameterNumberName":"U-component_of_WINDS"},"data":[0,0,0,0,0,0,0,0,0,0,0,0,0,0,0,0,0,0,0,0,0,0,0,0,0,0,0,0,0,0,0,0,0,0,0,0,0,0,0,0,0,0,0,0,0,0,0,0,0,0,0,0,0,0,0,0,0,0,-2.3209,-2.3209,0,-2.3217,-2.3218,-2.3218,-2.3192,-2.3191,-2.319,-2.3189,-2.32,-2.3201,-2.3202,0,0,0,0,0,0,0,0,0,0,0,0,0,-2.3173,-2.3174,-2.3209,-2.3209,-2.3209,-2.3217,-2.3218,-2.3218,-2.3192,-2.3191,-2.319,-2.3189,-2.32,-2.3201,-2.3202,0,0,0,0,0,0,0,0,0,0,0,0,0,-2.3186,-2.3174,-2.3209,-2.3197,-2.3196,-2.3217,-2.3218,-2.3218,-2.3192,-2.3191,-2.319,-2.3189,-2.3199,-2.3201,-2.3202,-2.3236,0,0,-2.3207,-2.3208,0,0,0,0,0,0,0,0,-2.3185,-2.3187,-2.3199,-2.3198,-2.3197,-2.3202,-2.3209,-2.3224,-2.3192,-2.3194,-2.3189,-2.3188,-2.3202,-2.3203,-2.3207,-2.3236,-2.3237,-2.3207,-2.3208,-2.3209,-2.3209,0,0,0,0,0,0,0,-2.3184,-2.3187,-2.3212,-2.3199,-2.3198,-2.3192,-2.3193,-2.3211,-2.3204,-2.3193,-2.3192,-2.3193,-2.3201,-2.3206,-2.3207,-2.3237,-2.3207,-2.3208,-2.3209,-2.321,-2.3295,-2.3296,0,0,0,0,0,0,-2.3185,-2.3186,-2.3212,-2.3213,-2.3188,-2.3194,-2.3195,-2.3202,-2.3204,-2.3203,-2.3194,-2.3192,-2.3204,-2.3206,-2.3208,-2.3247,-2.3209,-2.321,-2.3211,-2.3293,-2.3295,-2.3296,0,0,0,0,0,0,-2.3184,-2.3187,-2.3212,-2.3199,-2.3202,-2.3196,-2.3204,-2.3203,-2.3207,-2.3204,-2.3203,-2.32,-2.3203,-2.3205,-2.3229,-2.3247,-2.3211,-2.3212,-2.3292,-2.3294,-2.3296,-2.3326,0,0,0,0,0,0,-2.3183,-2.3187,-2.3199,-2.3199,-2.3202,-2.3232,-2.3205,-2.3204,-2.321,-2.3207,-2.321,-2.3209,-2.3202,-2.3227,-2.3231,-2.3249,-2.3213,-2.329,-2.3293,-2.3295,-2.3324,-2.3329,-2.3334,0,0,0,0,0,-2.3182,-2.3207,-2.32,-2.3203,-2.3217,-2.3233,-2.3235,-2.3226,-2.3211,-2.3224,-2.3222,-2.3209,-2.3245,-2.3229,-2.3233,-2.3252,-2.3289,-2.3292,-2.3295,-2.3321,-2.3328,-2.3334,0,0,0,0,0,0,-2.3209,-2.3207,-2.3198,-2.3225,-2.3229,-2.3229,-2.3244,-2.3233,-2.3242,-2.3239,-2.3229,-2.323,-2.3255,-2.3256,-2.3239,-2.3285,-2.3265,-2.3269,-2.3283,-2.329,-2.3295,-2.3293,-2.3215,0,0,0,0,0,-2.3218,-2.3231,-2.3229,-2.3252,-2.3255,-2.3249,-2.3256,-2.3249,-2.3253,-2.3255,-2.3255,-2.3261,-2.3273,-2.3282,-2.3293,-2.3324,-2.3325,-2.3339,-2.3345,-2.3349,-2.3352,-2.3369,-2.3375,-2.3306,-2.3306,-2.3306,0,0,-2.3237,-2.3238,-2.3246,-2.3258,-2.326,-2.3274,-2.3251,-2.3266,-2.3277,-2.3258,-2.3279,-2.328,-2.3286,-2.3314,-2.3326,-2.3315,-2.3371,-2.3353,-2.3356,-2.3357,-2.3373,-2.3379,-2.3385,-2.3308,-2.3308,-2.3308,0,0,-2.3278,-2.328,-2.33,-2.3303,-2.3307,-2.3304,-2.3309,-2.331,-2.331,-2.3332,-2.3318,-2.3331,-2.3353,-2.3357,-2.3363,-2.3408,-2.3397,-2.3413,-2.3438,-2.3455,-2.3461,-2.3466,-2.3482,-2.3488,-2.3416,-2.3416,-2.3416,0,-2.3301,-2.3321,-2.3311,-2.3328,-2.3334,-2.3317,-2.3338,-2.3342,-2.335,-2.3355,-2.3344,-2.3371,-2.3374,-2.3403,-2.3414,-2.3419,-2.3425,-2.3411,-2.3461,-2.3465,-2.347,-2.3485,-2.3491,-2.3418,-2.3418,-2.3418,-2.3417,0,-2.3349,-2.3363,-2.3379,-2.3387,-2.3394,-2.3413,-2.3407,-2.3417,-2.341,-2.3408,-2.3431,-2.3434,-2.3446,-2.3453,-2.3446,-2.3481,-2.3475,-2.3462,-2.3441,-2.3478,-2.3492,-2.3498,-2.3421,-2.342,-2.3419,-2.3419,0,0,-2.3405,-2.3409,-2.3415,-2.3419,-2.3423,-2.3434,-2.3453,-2.3465,-2.3473,-2.348,-2.3496,-2.3516,-2.3505,-2.3511,-2.3505,-2.352,-2.3556,-2.3506,-2.3506,-2.3514,-2.3595,-2.3604,-2.361,-2.3549,-2.355,-2.3551,-2.3594,0,-2.3446,-2.3476,-2.3469,-2.35,-2.3513,-2.3499,-2.3516,-2.3521,-2.352,-2.3533,-2.3532,-2.3546,-2.353,-2.3534,-2.3549,-2.3549,-2.3572,-2.3546,-2.3564,-2.3565,-2.3562,-2.3618,-2.3627,-2.3667,-2.36,-2.3601,-2.3602,0,-2.3496,-2.3504,-2.3536,-2.354,-2.3545,-2.356,-2.3571,-2.3582,-2.3589,-2.3587,-2.3595,-2.3587,-2.3607,-2.3587,-2.3614,-2.3597,-2.3604,-2.3606,-2.3607,-2.3607,-2.3584,-2.3619,-2.368,-2.3686,-2.361,-2.361,-2.3609,0,-2.3533,-2.3553,-2.3575,-2.3579,-2.3584,-2.3594,-2.3597,-2.3602,-2.361,-2.362,-2.3625,-2.3638,-2.3644,-2.3655,-2.3651,-2.3636,-2.3679,-2.3659,-2.3679,-2.3679,-2.3687,-2.3686,-2.3749,-2.3694,-2.3694,-2.3694,-2.3694,0,-2.3578,-2.3598,-2.3592,-2.3605,-2.3628,-2.3621,-2.3644,-2.3645,-2.365,-2.3664,-2.3654,-2.3667,-2.3661,-2.3675,-2.3673,-2.3696,-2.3699,-2.3699,-2.3698,-2.3699,-2.3699,-2.3703,-2.37,-2.3695,-2.3695,-2.3695,-2.3694,0,-2.3623,-2.362,-2.3642,-2.3645,-2.3647,-2.3663,-2.3666,-2.3679,-2.3679,-2.3697,-2.3701,-2.37,-2.3716,-2.3713,-2.3731,-2.3729,-2.3758,-2.3754,-2.3756,-2.3754,-2.3775,-2.3772,-2.3841,-2.385,-2.379,-2.379,-2.3791,0,-2.3651,-2.3666,-2.3671,-2.368,-2.3683,-2.3697,-2.3705,-2.3699,-2.3708,-2.3717,-2.373,-2.3744,-2.3756,-2.3782,-2.3783,-2.3797,-2.3793,-2.3816,-2.3795,-2.3796,-2.3793,-2.3791,-2.3793,-2.382,-2.3821,-2.3821,-2.3822,0,-2.3702,-2.37,-2.3711,-2.3722,-2.3732,-2.3741,-2.3749,-2.3757,-2.3752,-2.3763,-2.3778,-2.3787,-2.3806,-2.3821,-2.3834,-2.3838,-2.3829,-2.3829,-2.3834,-2.3835,-2.3835,-2.3835,-2.3766,-2.3827,-2.3826,-2.3826,-2.3826,-2.3825,-2.3739,-2.3752,-2.3757,-2.3771,-2.3776,-2.3784,-2.3796,-2.3798,-2.381,-2.3824,-2.3821,-2.3839,-2.3847,-2.3863,-2.3869,-2.3884,-2.3875,-2.3883,-2.3885,-2.3887,-2.3889,-2.3834,-2.3887,-2.3886,-2.3886,-2.3886,-2.3886,0,-2.3788,-2.3791,-2.3804,-2.3815,-2.3826,-2.3817,-2.3826,-2.3836,-2.3852,-2.3859,-2.3871,-2.389,-2.3905,-2.3908,-2.3923,-2.3934,-2.3931,-2.3938,-2.3937,-2.3938,-2.3896,-2.3889,-2.3941,-2.3941,-2.3941,-2.3941,-2.3941,-2.3941,-2.3815,-2.3837,-2.3836,-2.386,-2.3864,-2.3881,-2.3886,-2.3894,-2.39,-2.3921,-2.3934,-2.3936,-2.3942,-2.3957,-2.3971,-2.3972,-2.3977,-2.3986,-2.3986,-2.3946,-2.3941,-2.3935,-2.3929,-2.3988,-2.3988,-2.4026,-2.4026,-2.4027]},{"header":{"parameterUnit":"m.s-1","parameterCategory":1,"la1":30.2991,"la2":30.254,"lo1":-89.0895,"lo2":-89.0444,"dy":0.0017,"dx":0.0017,"nx":28,"ny":28,"refTime":"2024-03-13T21:00:00:Z","depth":0,"parameterNumber":3,"parameterNumberName":"V-component_of_WINDS"},"data":[0,0,0,0,0,0,0,0,0,0,0,0,0,0,0,0,0,0,0,0,0,0,0,0,0,0,0,0,0,0,0,0,0,0,0,0,0,0,0,0,0,0,0,0,0,0,0,0,0,0,0,0,0,0,0,0,0,0,2.2424,2.2424,0,2.2417,2.2417,2.2417,2.2453,2.2454,2.2455,2.2456,2.2448,2.2447,2.2446,0,0,0,0,0,0,0,0,0,0,0,0,0,2.247,2.2468,2.2424,2.2424,2.2424,2.2417,2.2417,2.2417,2.2453,2.2454,2.2455,2.2457,2.2448,2.2447,2.2446,0,0,0,0,0,0,0,0,0,0,0,0,0,2.2455,2.2468,2.2424,2.2441,2.2443,2.2417,2.2417,2.2417,2.2453,2.2454,2.2456,2.2457,2.2449,2.2447,2.2445,2.2403,0,0,2.244,2.2439,0,0,0,0,0,0,0,0,2.2456,2.2453,2.2439,2.244,2.2442,2.2438,2.243,2.2412,2.2452,2.2449,2.2456,2.2458,2.2443,2.2442,2.2437,2.2403,2.2402,2.244,2.2439,2.2438,2.2437,0,0,0,0,0,0,0,2.2457,2.2454,2.2422,2.2439,2.244,2.2449,2.2449,2.2427,2.2437,2.2449,2.2452,2.2451,2.2444,2.2439,2.2437,2.2402,2.244,2.2438,2.2437,2.2436,2.2335,2.2333,0,0,0,0,0,0,2.2455,2.2454,2.2422,2.2421,2.2453,2.2447,2.2447,2.2437,2.2438,2.2439,2.2449,2.2452,2.2441,2.2439,2.2437,2.2389,2.2438,2.2436,2.2435,2.2336,2.2334,2.2332,0,0,0,0,0,0,2.2456,2.2452,2.2422,2.2438,2.2435,2.2445,2.2434,2.2436,2.2431,2.2438,2.244,2.2442,2.2442,2.244,2.2412,2.239,2.2436,2.2434,2.2338,2.2336,2.2333,2.2292,0,0,0,0,0,0,2.2457,2.2452,2.2436,2.2438,2.2434,2.2397,2.2432,2.2435,2.2428,2.2432,2.2431,2.2433,2.2443,2.2414,2.241,2.2388,2.2432,2.234,2.2337,2.2334,2.2296,2.2289,2.2283,0,0,0,0,0,2.2459,2.2424,2.2435,2.2431,2.2414,2.2395,2.2393,2.2407,2.2426,2.241,2.2415,2.2433,2.2392,2.2411,2.2407,2.2384,2.2342,2.2338,2.2334,2.2298,2.229,2.2283,0,0,0,0,0,0,2.2419,2.2425,2.2437,2.2402,2.2398,2.2401,2.2382,2.2397,2.2387,2.2391,2.2408,2.2407,2.2377,2.2377,2.2398,2.2344,2.237,2.2366,2.2345,2.2337,2.233,2.2332,2.2431,0,0,0,0,0,2.2406,2.239,2.2396,2.2364,2.2362,2.2372,2.2364,2.2375,2.2371,2.237,2.2372,2.2368,2.2355,2.2345,2.2333,2.2295,2.2297,2.2277,2.2271,2.2266,2.2262,2.2244,2.2236,2.232,2.232,2.232,0,0,2.2379,2.238,2.2369,2.2356,2.2354,2.2338,2.237,2.2351,2.2339,2.2367,2.2341,2.2343,2.2339,2.2307,2.2292,2.2306,2.2239,2.2261,2.2257,2.2256,2.2239,2.2231,2.2224,2.2318,2.2318,2.2319,0,0,2.2322,2.2321,2.2295,2.2293,2.2291,2.2298,2.2292,2.2293,2.2296,2.227,2.2291,2.2277,2.2253,2.225,2.2246,2.2189,2.2206,2.2185,2.2151,2.2134,2.2127,2.2121,2.2103,2.2096,2.218,2.218,2.218,0,2.2289,2.2265,2.228,2.226,2.2255,2.2279,2.2254,2.2251,2.2244,2.224,2.2255,2.2227,2.2226,2.2195,2.2181,2.2176,2.217,2.2185,2.2127,2.2121,2.2116,2.2098,2.2091,2.2178,2.2178,2.2178,2.2179,0,2.2226,2.2209,2.2189,2.2183,2.2175,2.2152,2.2164,2.2154,2.2165,2.2171,2.2146,2.2146,2.2135,2.2128,2.2138,2.2098,2.2107,2.2124,2.2151,2.2105,2.2089,2.2082,2.2174,2.2175,2.2176,2.2177,0,0,2.2144,2.2147,2.214,2.2138,2.2137,2.2125,2.2104,2.2094,2.2086,2.208,2.2064,2.2043,2.206,2.2055,2.2065,2.2049,2.2007,2.2069,2.2069,2.2059,2.1964,2.1952,2.1944,2.2017,2.2016,2.2015,2.1965,0,2.209,2.2055,2.2068,2.2032,2.2018,2.2041,2.2023,2.2021,2.2026,2.2014,2.2019,2.2006,2.2027,2.2025,2.201,2.2015,2.1988,2.2018,2.2003,2.2002,2.2005,2.1936,2.1923,2.1876,2.1959,2.1957,2.1957,0,2.2022,2.2015,2.1978,2.1982,2.1976,2.196,2.1953,2.1941,2.1939,2.1944,2.1939,2.1953,2.1933,2.1959,2.1933,2.1953,2.1948,2.1949,2.1948,2.1948,2.1978,2.1936,2.1861,2.1855,2.1947,2.1947,2.1948,0,2.1969,2.195,2.1926,2.1923,2.1926,2.1915,2.1915,2.1915,2.1909,2.1902,2.1898,2.1889,2.1884,2.1877,2.1889,2.1907,2.1861,2.1888,2.1865,2.1865,2.1856,2.1857,2.1781,2.1849,2.1849,2.1849,2.185,0,2.1908,2.1885,2.1902,2.1888,2.1863,2.1878,2.1853,2.1856,2.1856,2.1843,2.1861,2.1848,2.1864,2.1852,2.1861,2.1839,2.1836,2.184,2.1843,2.1839,2.1839,2.1837,2.1841,2.1848,2.1848,2.1848,2.1849,0,2.1845,2.1855,2.1831,2.1836,2.1837,2.1818,2.1823,2.181,2.1816,2.1799,2.1796,2.1806,2.1793,2.1804,2.1791,2.1798,2.1769,2.1775,2.177,2.1772,2.175,2.1752,2.1671,2.1662,2.1734,2.1734,2.1733,0,2.1806,2.1789,2.1793,2.1786,2.1786,2.1773,2.1768,2.1782,2.1775,2.1773,2.176,2.1749,2.1742,2.1721,2.1727,2.1718,2.1726,2.1698,2.1725,2.1722,2.1728,2.173,2.1729,2.1693,2.1693,2.1692,2.1691,0,2.1738,2.1744,2.1735,2.1728,2.1721,2.1716,2.1713,2.1705,2.172,2.1712,2.17,2.1694,2.1682,2.1672,2.1665,2.1666,2.1681,2.1683,2.1677,2.1674,2.1673,2.1675,2.1757,2.1685,2.1685,2.1686,2.1686,2.1687,2.1687,2.1674,2.1675,2.1665,2.1664,2.1661,2.1649,2.1655,2.1645,2.1637,2.1646,2.1632,2.1632,2.1624,2.1623,2.1613,2.1624,2.1616,2.1614,2.1612,2.161,2.1673,2.1611,2.1611,2.1611,2.1612,2.1612,0,2.1622,2.1624,2.1614,2.1609,2.1602,2.1617,2.1614,2.1607,2.1594,2.1593,2.1585,2.1572,2.1563,2.1568,2.156,2.1551,2.1558,2.1548,2.155,2.155,2.1599,2.1606,2.1543,2.1543,2.1543,2.1543,2.1543,2.1543,2.1587,2.1566,2.1572,2.1552,2.1554,2.1541,2.1538,2.1535,2.1535,2.152,2.1512,2.1516,2.1517,2.151,2.1502,2.1504,2.1501,2.1489,2.1493,2.1539,2.1546,2.1553,2.1559,2.1488,2.1487,2.1446,2.1445,2.1445]}]]